FW9692 Weather Reports


Display with metric or nautical units.
time (UTC)temp
F
wind
direction
speed
MPH
gust
MPH
rain 1hr
in
rain 24hr
in
rain mn
in
humidity
%
barometer
mb
20260508114510 57 137 3.0 6.0 0.00 0.00 0.00 80 1002.5
20260508113009 58 137 3.0 7.0 0.00 0.00 0.00 79 1002.6
20260508111507 58 121 3.0 9.0 0.00 0.00 0.00 80 1002.3
20260508110006 58 139 6.0 13.0 0.00 0.00 0.00 81 1002.3
20260508104555 59 150 9.0 12.0 0.00 0.00 0.00 80 1002.3
20260508103153 58 138 11.0 15.0 0.00 0.00 0.00 80 1002.4
20260508101553 59 163 11.0 14.0 0.00 0.00 0.00 79 1002.8
20260508100049 58 156 7.0 11.0 0.00 0.00 0.00 77 1002.9
20260508094557 58 150 5.0 8.0 0.00 0.00 0.00 76 1003.2
20260508093054 58 142 11.0 14.0 0.00 0.00 0.00 75 1002.8
20260508091607 58 137 10.0 13.0 0.00 0.00 0.00 74 1002.5
20260508090055 59 131 8.0 10.0 0.00 0.00 0.00 71 1002.7
20260508084522 59 121 8.0 11.0 0.00 0.00 0.00 70 1003.0
20260508083020 59 128 4.0 11.0 0.00 0.00 0.00 69 1003.2
20260508081525 60 65 7.0 10.0 0.00 0.00 0.00 69 1002.9
20260508080029 60 171 5.0 7.0 0.00 0.00 0.00 68 1003.7
20260508074536 60 150 4.0 8.0 0.00 0.00 0.00 68 1003.9
20260508073033 60 132 6.0 10.0 0.00 0.00 0.00 69 1004.0
20260508071532 60 123 8.0 10.0 0.00 0.00 0.00 67 1004.0
20260508070031 61 110 4.0 9.0 0.00 0.00 0.00 67 1004.1
20260508064543 61 119 4.0 9.0 0.00 0.00 0.00 67 1003.8
20260508063032 61 124 5.0 9.0 0.00 0.00 0.00 67 1003.9
20260508061536 61 123 2.0 3.0 0.00 0.00 0.00 66 1003.9
20260508060032 61 148 5.0 9.0 0.00 0.00 0.00 66 1004.1
20260508054538 62 160 9.0 13.0 0.00 0.00 0.00 65 1004.0
20260508053025 62 163 12.0 15.0 0.00 0.00 0.00 65 1004.1
20260508051530 62 168 15.0 19.0 0.00 0.00 0.00 64 1004.1
20260508050023 63 173 16.0 21.0 0.00 0.00 0.00 64 1003.8
20260508044526 63 157 17.0 21.0 0.00 0.00 0.00 63 1003.8
20260508043025 63 144 17.0 22.0 0.00 0.00 0.00 62 1004.1
20260508041524 64 147 15.0 20.0 0.00 0.00 0.00 61 1004.2
20260508040039 64 153 19.0 25.0 0.00 0.00 0.00 59 1004.2
20260508034511 65 150 18.0 26.0 0.00 0.00 0.00 58 1003.8
20260508033009 66 142 18.0 23.0 0.00 0.00 0.00 58 1003.6
20260508031514 67 142 17.0 21.0 0.00 0.00 0.00 56 1003.6
20260508030008 68 148 18.0 25.0 0.00 0.00 0.00 54 1003.5
20260508024521 68 149 17.0 22.0 0.00 0.00 0.00 53 1003.4
20260508023013 69 153 16.0 21.0 0.00 0.00 0.00 52 1003.3
20260508021512 69 140 15.0 19.0 0.00 0.00 0.00 51 1003.0
20260508020011 70 139 16.0 22.0 0.00 0.00 0.00 50 1002.8
20260508014603 70 142 14.0 22.0 0.00 0.00 0.00 49 1002.7
20260508013001 71 135 17.0 21.0 0.00 0.00 0.00 47 1002.6
20260508011600 71 131 15.0 20.0 0.00 0.00 0.00 46 1002.5
20260508011502 71 137 14.0 20.0 0.00 0.00 0.00 45 1002.5
20260508010059 72 139 17.0 22.0 0.00 0.00 0.00 45 1002.5
20260508004523 73 128 10.0 16.0 0.00 0.00 0.00 45 1002.4
20260508003018 73 150 13.0 19.0 0.00 0.00 0.00 44 1002.7
20260508001517 73 121 11.0 17.0 0.00 0.00 0.00 44 1002.6
20260508000017 73 137 8.0 15.0 0.00 0.00 0.00 44 1002.4
20260507234528 73 113 6.0 17.0 0.00 0.00 0.00 44 1002.5
20260507233018 73 134 12.0 19.0 0.00 0.00 0.00 44 1002.4
20260507231511 73 137 9.0 17.0 0.00 0.00 0.00 43 1002.6
20260507230015 72 142 12.0 18.0 0.00 0.00 0.00 44 1002.7
20260507224507 72 109 10.0 23.0 0.00 0.00 0.00 43 1003.0
20260507223007 72 119 9.0 15.0 0.00 0.00 0.00 42 1003.1
20260507221559 72 171 8.0 16.0 0.00 0.00 0.00 43 1003.3
20260507220057 71 134 11.0 17.0 0.00 0.00 0.00 45 1003.4
20260507214505 71 141 10.0 15.0 0.00 0.00 0.00 45 1003.6
20260507213002 70 144 5.0 18.0 0.00 0.00 0.00 45 1004.0
20260507211603 69 132 6.0 14.0 0.00 0.00 0.00 46 1004.5
20260507210113 68 101 4.0 8.0 0.00 0.00 0.00 48 1004.6
20260507204546 67 135 2.0 12.0 0.00 0.00 0.00 49 1004.8
20260507203040 67 161 3.0 12.0 0.00 0.00 0.00 49 1004.9
20260507201539 67 130 6.0 17.0 0.00 0.00 0.00 50 1005.1
20260507200046 65 87 11.0 17.0 0.00 0.00 0.00 52 1005.4
20260507194511 65 78 6.0 12.0 0.00 0.00 0.00 53 1005.8
20260507193002 64 108 9.0 13.0 0.00 0.00 0.00 54 1006.1
20260507191603 63 85 3.0 16.0 0.00 0.00 0.00 55 1006.3
20260507191501 63 296 5.0 16.0 0.00 0.00 0.00 54 1006.2
20260507190110 62 221 4.0 12.0 0.00 0.00 0.00 57 1006.6
20260507184553 62 30 2.0 15.0 0.00 0.00 0.00 58 1006.9
20260507183111 62 33 5.0 10.0 0.00 0.00 0.00 59 1007.1
20260507181556 61 104 3.0 8.0 0.00 0.00 0.00 60 1007.3
20260507180052 60 90 6.0 13.0 0.00 0.00 0.00 61 1007.6
20260507174536 60 107 4.0 11.0 0.00 0.00 0.00 61 1008.0
20260507173045 59 90 4.0 11.0 0.00 0.00 0.00 61 1008.1
20260507171533 58 63 6.0 11.0 0.00 0.00 0.00 63 1008.3
20260507170033 58 67 5.0 13.0 0.00 0.00 0.00 64 1008.4
20260507164544 57 51 10.0 16.0 0.00 0.00 0.00 64 1008.6
20260507163032 56 56 8.0 13.0 0.00 0.00 0.00 65 1008.8
20260507161542 56 82 9.0 14.0 0.00 0.00 0.00 65 1008.9
20260507160031 56 65 6.0 14.0 0.00 0.00 0.00 66 1008.9
20260507154528 56 80 7.0 12.0 0.00 0.00 0.00 66 1009.1
20260507153034 55 57 10.0 14.0 0.00 0.00 0.00 66 1009.0
20260507151526 55 79 11.0 15.0 0.00 0.00 0.00 66 1009.0
20260507150031 55 79 10.0 13.0 0.00 0.00 0.00 66 1009.0
20260507144530 55 67 11.0 17.0 0.00 0.00 0.00 66 1009.1
20260507143025 55 79 11.0 16.0 0.00 0.00 0.00 66 1009.1
20260507141521 55 87 11.0 15.0 0.00 0.00 0.00 66 1009.1
20260507140021 55 90 11.0 15.0 0.00 0.00 0.00 67 1009.1
20260507134513 55 76 13.0 17.0 0.00 0.00 0.00 67 1009.1
20260507133010 55 61 14.0 17.0 0.00 0.00 0.00 67 1008.9
20260507131517 55 42 13.0 17.0 0.00 0.00 0.00 67 1008.7
20260507130007 55 44 13.0 18.0 0.00 0.00 0.00 66 1008.5
20260507124513 55 31 14.0 17.0 0.00 0.00 0.00 65 1008.1
20260507123006 55 36 12.0 16.0 0.00 0.00 0.00 64 1008.0
20260507121510 54 22 12.0 16.0 0.00 0.00 0.00 63 1007.8
20260507120006 53 347 12.0 17.0 0.00 0.00 0.00 62 1007.5
20260507114609 53 13 11.0 15.0 0.00 0.00 0.00 62 1007.2